Flag for Malaysia Weather past 2 weeks in Kuala Lumpur, Malaysia

Now
90 °F

Broken clouds.


Feels Like: 103 °F
Forecast: 76 / 93 °F
Wind: 8 mph from Southeast

Location: Sultan Abdul Aziz Shah-Subang

Current Time: Sep 1, 2015 at 4:28:01 PM

Latest Report: Sep 1, 2015 at 4:00 PM


Visibility: 2 mi

Pressure: 29.77 "Hg

Humidity: 67%

Dew point: 77 °F

Location of Kuala LumpurLocation

Historic Weather in Kuala Lumpur — Graph

°F

Kuala Lumpur temperature yesterday

Maximum temperature yesterday: 91 °F (at 1:00 PM)
Minimum temperature yesterday: 77 °F (at 5:00 AM)
Average temperature yesterday: 84 °F

Past Weeks' High & Low Weather Summary

 TemperatureHumidityPressure
High95 °F (Aug 28, 3:00 PM)94% (Aug 18, 11:00 PM)29.95 "Hg (Aug 18, 11:00 PM)
Low75 °F (Aug 20, 11:00 AM)49% (Aug 18, 1:00 PM)29.71 "Hg (Aug 29, 5:00 PM)
Average84 °F78%29.84 "Hg
* Reported Aug 17 3:00 PM — Sep 1 3:00 PM, Kuala Lumpur, Weather by CustomWeather, © 2015

Note: Actual official high and low records may vary slightly from our data, if they occured in-between our weather recording intervals... More about our weather records

Advertising

Kuala Lumpur weather history for previous 24 hours

 ConditionsComfort  
Time TempWeatherWind HumidityBarometerVisibility
3:00 PM
Tue, Sep 1
91 °FBroken clouds.8 mph59%29.80 "Hg2 mi
2:00 PM93 °FBroken clouds.6 mph56%29.80 "Hg4 mi
1:00 PM93 °FBroken clouds.9 mph49%29.83 "Hg6 mi
12:00 PM91 °FBroken clouds.8 mph56%29.86 "Hg6 mi
11:00 AM90 °FBroken clouds.8 mph59%29.86 "Hg6 mi
10:00 AM86 °FBroken clouds.3 mph70%29.86 "Hg6 mi
9:00 AM81 °FBroken clouds.2 mph84%29.86 "Hg4 mi
8:00 AM77 °FPartly cloudy.No wind94%29.83 "Hg2 mi
7:00 AM77 °FPartly cloudy.No wind89%29.83 "Hg1 mi
6:00 AM77 °FPartly cloudy.No wind94%29.83 "Hg2 mi
5:00 AM77 °FPartly cloudy.No wind94%29.83 "Hg1 mi
4:00 AM77 °FPartly cloudy.No wind94%29.86 "Hg2 mi
3:00 AM77 °FPartly cloudy.3 mph94%29.86 "Hg1 mi
2:00 AM79 °FPartly cloudy.1 mph89%29.89 "Hg2 mi
1:00 AM79 °FPartly cloudy.2 mph89%29.89 "Hg1 mi
12:00 AM79 °FPartly cloudy.5 mph89%29.92 "Hg2 mi
11:00 PM
Mon, Aug 31
79 °FPartly cloudy.2 mph89%29.89 "Hg2 mi
10:00 PM81 °FPartly cloudy.6 mph89%29.89 "Hg2 mi
9:00 PM81 °FPartly cloudy.6 mph89%29.86 "Hg3 mi
8:00 PM82 °FBroken clouds.7 mph84%29.86 "Hg3 mi
7:00 PM88 °FThunderstorms. Broken clouds.6 mph70%29.80 "Hg4 mi
6:00 PM90 °FBroken clouds.13 mph67%29.77 "Hg4 mi
5:00 PM91 °FBroken clouds.8 mph63%29.80 "Hg4 mi
4:00 PM91 °FPartly sunny.8 mph63%29.80 "Hg4 mi
Weather by CustomWeather, © 2015

See weather overviewHow to use our weather pages